Aberdeen / Amory, MS

10:03 AM CDT on September 23, 2017 (GMT -0500)
Aberdeen / Amory

Weather History for KM40 - August, 2013

Change the Weather History Date:

Sunday, August 18, 2013

  Actual Average (KCBM) Record (KCBM)
Temperature  
Mean Temperature 74 °F -  
Max Temperature 84 °F 88 °F 101 °F (2007)
Min Temperature 64 °F 68 °F 60 °F (2004)
Cooling Degree Days 9    
Growing Degree Days 24 (Base 50)    
Moisture  
Dew Point 56 °F    
Average Humidity 55    
Maximum Humidity 60    
Minimum Humidity 52    
Precipitation  
Precipitation 0.00 in - - ()
Sea Level Pressure  
Sea Level Pressure 30.10 in    
Wind  
Wind Speed 2 mph (ESE)    
Max Wind Speed 12 mph    
Max Gust Speed 17 mph    
Visibility 6 miles    
Events      
Averages and records for this station are not official NWS values.
T = Trace of Precipitation, MM = Missing Value Source: NWS Daily Summary

Daily Weather History Graph

Daily Weather History Graph

Search for Another Location

Airport or City:

Trip Planner

Search our weather history database for the weather conditions in past years. The results will help you decide how hot, cold, wet, or windy it might be!

Date:

Astronomy

Aug. 18, 2013 Rise Set
Actual Time 6:18 AM CDT 7:36 PM CDT
Civil Twilight 5:51 AM CDT 8:02 PM CDT
Nautical Twilight 5:20 AM CDT 8:34 PM CDT
Astronomical Twilight 4:47 AM CDT 9:06 PM CDT
Moon 5:40 PM CDT (8/18) 3:31 AM CDT (8/18)
Length of Visible Light 14h 11m
Length of Day
13h 18m
Waxing Gibbous, 92% of the Moon is Illuminated
Aug 18
Waxing Gibbous
Aug 20
Full
Aug 28
Last Quarter
Sep 5
New
Sep 12
First Quarter

Hourly Weather History & Observations

Time (CDT) Temp. Heat Index Dew Point Humidity Pressure Visibility Wind Dir Wind Speed Gust Speed Precip Events Conditions
12:15 AM 69.8 °F - 53.6 °F 56% 30.08 in 5.0 mi Calm Calm - N/A   Haze
12:35 AM 69.8 °F - 53.6 °F 56% 30.08 in 4.0 mi SE 3.5 mph - N/A   Haze
12:55 AM 69.8 °F - 53.6 °F 56% 30.08 in 4.0 mi Calm Calm - N/A   Haze
1:15 AM 69.8 °F - 51.8 °F 53% 30.08 in 4.0 mi Calm Calm - N/A   Haze
1:35 AM 68.0 °F - 51.8 °F 56% 30.07 in 3.0 mi Calm Calm - N/A   Haze
1:55 AM 68.0 °F - 51.8 °F 56% 30.08 in 3.0 mi Calm Calm - N/A   Haze
2:15 AM 68.0 °F - 51.8 °F 56% 30.07 in 3.0 mi Calm Calm - N/A   Haze
2:35 AM 66.2 °F - 51.8 °F 60% 30.07 in 2.5 mi Calm Calm - N/A   Haze
2:55 AM 66.2 °F - 50.0 °F 56% 30.07 in 2.5 mi Calm Calm - N/A   Haze
3:15 AM 66.2 °F - 48.2 °F 52% 30.07 in 1.5 mi Calm Calm - N/A   Haze
3:35 AM 66.2 °F - 48.2 °F 52% 30.07 in 1.5 mi Calm Calm - N/A   Haze
3:55 AM 64.4 °F - 48.2 °F 56% 30.07 in 0.2 mi Calm Calm - N/A   Haze
4:15 AM 64.4 °F - 48.2 °F 56% 30.07 in 3.0 mi Calm Calm - N/A   Haze
4:35 AM 64.4 °F - 48.2 °F 56% 30.07 in 0.5 mi Calm Calm - N/A   Haze
4:55 AM 64.4 °F - 48.2 °F 56% 30.08 in 2.0 mi Calm Calm - N/A   Haze
5:15 AM 64.4 °F - 46.4 °F 52% 30.09 in 1.0 mi Calm Calm - N/A   Haze
5:35 AM 64.4 °F - 48.2 °F 56% 30.09 in 2.5 mi Calm Calm - N/A   Haze
5:55 AM 66.2 °F - 48.2 °F 52% 30.10 in 2.5 mi Calm Calm - N/A   Haze
6:15 AM 66.2 °F - 50.0 °F 56% 30.11 in 3.0 mi Calm Calm - N/A   Haze
6:35 AM 66.2 °F - 50.0 °F 56% 30.12 in 2.5 mi Calm Calm - N/A   Haze
6:55 AM 66.2 °F - 51.8 °F 60% 30.12 in 2.5 mi ESE 3.5 mph - N/A   Haze
7:15 AM 68.0 °F - 51.8 °F 56% 30.12 in 3.0 mi ESE 3.5 mph - N/A   Haze
7:35 AM 69.8 °F - 53.6 °F 56% 30.12 in 3.0 mi ESE 3.5 mph - N/A   Haze
7:55 AM 71.6 °F - 53.6 °F 53% 30.12 in 4.0 mi ESE 3.5 mph - N/A   Haze
8:15 AM 71.6 °F - 55.4 °F 57% 30.13 in 4.0 mi East 3.5 mph - N/A   Haze
8:35 AM 73.4 °F - 55.4 °F 53% 30.13 in 5.0 mi ENE 3.5 mph - N/A   Haze
8:55 AM 73.4 °F - 55.4 °F 53% 30.12 in 5.0 mi Calm Calm - N/A   Haze
9:15 AM 73.4 °F - 57.2 °F 57% 30.12 in 6.0 mi East 3.5 mph - N/A   Haze
9:35 AM 75.2 °F - 57.2 °F 53% 30.12 in 7.0 mi East 4.6 mph - N/A   Mostly Cloudy
9:55 AM 75.2 °F - 59.0 °F 57% 30.13 in 9.0 mi SE 5.8 mph - N/A   Mostly Cloudy
10:15 AM 75.2 °F - 59.0 °F 57% 30.14 in 8.0 mi ESE 4.6 mph - N/A   Mostly Cloudy
10:35 AM 75.2 °F - 59.0 °F 57% 30.14 in 8.0 mi Calm Calm - N/A   Mostly Cloudy
10:55 AM 78.8 °F - 60.8 °F 54% 30.14 in 9.0 mi ENE 3.5 mph - N/A   Mostly Cloudy
11:15 AM 80.6 °F 81.8 °F 62.6 °F 54% 30.14 in 9.0 mi East 3.5 mph - N/A   Mostly Cloudy
11:35 AM 82.4 °F 83.9 °F 64.4 °F 54% 30.13 in 8.0 mi Calm Calm - N/A   Scattered Clouds
11:55 AM 82.4 °F 83.9 °F 64.4 °F 54% 30.13 in 8.0 mi Calm Calm - N/A   Mostly Cloudy
12:15 PM 80.6 °F 82.3 °F 64.4 °F 58% 30.12 in 7.0 mi SE 5.8 mph - N/A   Mostly Cloudy
12:35 PM 82.4 °F 84.6 °F 66.2 °F 58% 30.12 in 9.0 mi SSE 4.6 mph - N/A   Mostly Cloudy
12:55 PM 84.2 °F 86.6 °F 66.2 °F 55% 30.12 in 9.0 mi SE 4.6 mph - N/A   Scattered Clouds
1:15 PM 80.6 °F 82.3 °F 64.4 °F 58% 30.11 in 8.0 mi ESE 4.6 mph - N/A   Mostly Cloudy
1:35 PM 78.8 °F - 62.6 °F 57% 30.12 in 8.0 mi SE 5.8 mph - N/A   Mostly Cloudy
1:55 PM 80.6 °F 81.8 °F 62.6 °F 54% 30.12 in 9.0 mi ESE 11.5 mph 16.1 mph N/A   Mostly Cloudy
2:15 PM 75.2 °F - 59.0 °F 57% 30.12 in 3.0 mi SE 9.2 mph 17.3 mph N/A   Haze
2:35 PM 75.2 °F - 59.0 °F 57% 30.11 in 6.0 mi SSE 8.1 mph - N/A   Haze
2:55 PM 77.0 °F - 60.8 °F 57% 30.10 in 5.0 mi SE 8.1 mph - N/A   Haze
3:15 PM 80.6 °F 81.8 °F 62.6 °F 54% 30.10 in 9.0 mi SE 5.8 mph - N/A   Mostly Cloudy
3:35 PM 78.8 °F - 62.6 °F 57% 30.09 in 9.0 mi SSE 6.9 mph - N/A   Mostly Cloudy
3:55 PM 78.8 °F - 60.8 °F 54% 30.09 in 9.0 mi SE 8.1 mph - N/A   Mostly Cloudy
4:15 PM 77.0 °F - 60.8 °F 57% 30.09 in 2.5 mi ESE 8.1 mph - N/A   Light Drizzle
4:35 PM 73.4 °F - 57.2 °F 57% 30.09 in 1.2 mi SE 5.8 mph - N/A   Light Drizzle
4:55 PM 73.4 °F - 57.2 °F 57% 30.09 in 1.8 mi SSE 5.8 mph - N/A   Light Drizzle
5:15 PM 73.4 °F - 57.2 °F 57% 30.10 in 3.0 mi SSE 5.8 mph - N/A   Haze
5:35 PM 73.4 °F - 57.2 °F 57% 30.09 in 8.0 mi SE 3.5 mph - N/A   Mostly Cloudy
5:55 PM 75.2 °F - 57.2 °F 53% 30.09 in 9.0 mi SE 3.5 mph - N/A   Scattered Clouds
6:15 PM 75.2 °F - 57.2 °F 53% 30.08 in 9.0 mi ESE 4.6 mph - N/A   Scattered Clouds
6:35 PM 75.2 °F - 57.2 °F 53% 30.07 in 9.0 mi ESE 5.8 mph - N/A   Partly Cloudy
6:55 PM 75.2 °F - 57.2 °F 53% 30.06 in 8.0 mi ESE 4.6 mph - N/A   Clear
7:15 PM 75.2 °F - 57.2 °F 53% 30.07 in 9.0 mi ESE 3.5 mph - N/A   Clear
7:35 PM 73.4 °F - 57.2 °F 57% 30.08 in 9.0 mi Calm Calm - N/A   Partly Cloudy
7:55 PM 73.4 °F - 57.2 °F 57% 30.07 in 9.0 mi Calm Calm - N/A   Mostly Cloudy
8:15 PM 73.4 °F - 55.4 °F 53% 30.08 in 10.0 mi Calm Calm - N/A   Mostly Cloudy
8:35 PM 71.6 °F - 55.4 °F 57% 30.08 in 9.0 mi Calm Calm - N/A   Partly Cloudy
8:55 PM 71.6 °F - 55.4 °F 57% 30.09 in 8.0 mi NNE 3.5 mph - N/A   Clear
9:15 PM 71.6 °F - 53.6 °F 53% 30.09 in 8.0 mi North 3.5 mph - N/A   Clear
9:35 PM 71.6 °F - 53.6 °F 53% 30.09 in 8.0 mi Calm Calm - N/A   Partly Cloudy
9:55 PM 69.8 °F - 53.6 °F 56% 30.09 in 3.0 mi Calm Calm - N/A   Haze
10:15 PM 69.8 °F - 53.6 °F 56% 30.09 in 4.0 mi NNW 3.5 mph - N/A   Haze
10:35 PM 69.8 °F - 53.6 °F 56% 30.09 in 2.5 mi Calm Calm - N/A   Haze
10:55 PM 69.8 °F - 53.6 °F 56% 30.09 in 2.5 mi Calm Calm - N/A   Haze
11:15 PM 69.8 °F - 53.6 °F 56% 30.09 in 5.0 mi Calm Calm - N/A   Haze
11:35 PM 71.6 °F - 53.6 °F 53% 30.09 in 7.0 mi Calm Calm - N/A   Overcast
11:55 PM 71.6 °F - 53.6 °F 53% 30.09 in 7.0 mi Calm Calm - N/A   Scattered Clouds